Simultaneous Nadir Overpasses (SNOs) Predictions

Prediction of SNOs between AQUA and METOP-A Satellite Orbit:

Table of predicted SNOs for the next 14.0 days since TLE Epoch: 6/30/2017
Index Date (AQUA) Time (AQUA) Lat,Lon (AQUA) SZA (AQUA ) Date (METOP-A) Time (METOP-A) Lat,Lon (METOP-A) SZA (METOP-A ) Distance(km) Time Diff (sec)
1 07/01/2017 14:10:17 73.91, -38.54 50.90 07/01/2017 14:09:46 73.92, -38.51 50.91 1.53 31
2 07/01/2017 14:59:44 -73.98, 128.94 129.03 07/01/2017 15:00:26 -74.00, 129.00 129.02 2.65 42
3 07/04/2017 09:44:31 73.90, 27.92 51.12 07/04/2017 09:44:06 73.92, 27.88 51.14 2.48 25
4 07/04/2017 10:33:59 -74.01,-164.69 128.76 07/04/2017 10:34:46 -74.00,-164.59 128.78 3.40 47
5 07/07/2017 04:29:07 -73.27, -71.94 129.28 07/07/2017 04:28:01 -73.23, -74.63 129.19 86.35 66
6 07/07/2017 05:18:47 73.94, 94.26 51.45 07/07/2017 05:18:27 73.91, 94.28 51.42 3.33 20
7 07/07/2017 06:08:14 -74.00, -98.22 128.50 07/07/2017 06:09:07 -74.00, -98.18 128.50 1.28 53
8 07/10/2017 00:03:27 -73.52, -6.03 128.68 07/10/2017 00:02:17 -73.48, -7.67 128.64 52.18 70
9 07/10/2017 00:53:02 73.94, 160.70 51.78 07/10/2017 00:52:47 73.96, 160.79 51.80 3.19 15
10 07/10/2017 01:42:29 -73.98, -31.76 128.17 07/10/2017 01:43:28 -74.00, -31.78 128.17 1.74 59
11 07/12/2017 19:37:46 -73.72, 59.97 128.08 07/12/2017 19:36:34 -73.67, 59.19 128.08 25.31 72
12 07/12/2017 20:27:17 73.94,-132.87 52.17 07/12/2017 20:27:08 73.95,-132.83 52.17 1.35 9
13 07/12/2017 21:16:43 -73.98, 34.69 127.79 07/12/2017 21:17:48 -74.00, 34.62 127.78 2.87 65




NCC Satellite Simultaneous Nadir Overpasses (SNOs) Prediction Service
